Regional Weather Roundup
Issued by NWS

Home | Current Version | Previous Version | Graphics & Text | Print | Product List | Glossary On
Versions: 1 2 3 4 5 6 7 8 9 10 11 12 13 14 15 16 17 18 19 20 21 22 23 24 25 26 27 28 29 30 31 32 33 34 35 36 37 38 39 40 41 42 43 44 45 46 47 48 49 50
288
ASUS45 KTFX 231810
RWRMT
MONTANA REGIONAL WEATHER ROUNDUP
NATIONAL WEATHER SERVICE GREAT FALLS MT
1200 PM MDT SUN JUL 23 2017

NOTE: "FAIR" INDICATES FEW OR NO CLOUDS BELOW 12000 FEET WITH NO
SIGNIFICANT WEATHER AND/OR OBSTRUCTIONS TO VISIBILITY.

MTZ001>007-043-231900-
WEST OF THE DIVIDE

CITY           SKY/WX    TMP DP  RH WIND       PRES   REMARKS
KALISPELL      SUNNY     84  51  31 S10       29.99F
MISSOULA       SUNNY     79  47  32 SE5       30.03F
BUTTE          SUNNY     81  39  22 CALM      30.15F
MULLAN PASS    SUNNY     70  44  39 VRB6      30.20F
ANACONDA         N/A     79  45  29 N5        30.10F
DEER LODGE       N/A     79  45  29 NE3       30.11F
EUREKA           N/A     84  48  28 MISG      29.94F
HAMILTON         N/A     77  46  33 N3        30.05F
LIBBY            N/A     82  48  30 CALM      29.95F
PLAINS           N/A     83  51  32 CALM      29.99F
$$

MTZ008-052>055-231900-
SOUTHWEST MONTANA

CITY           SKY/WX    TMP DP  RH WIND       PRES   REMARKS
BOZEMAN        MOSUNNY   81  44  27 NW6       30.09F
DILLON         SUNNY     76  41  28 CALM      30.13F
W YELLOWSTONE  CLOUDY    72  39  30 VRB3      30.28F
ENNIS          SUNNY     77  36  22 CALM      30.18F
THREE FORKS      N/A     77  43  29 CALM      30.07F
TWIN BRIDGES     N/A     76  44  31 CALM      30.10F
$$

MTZ009-010-012-014-046-048-049-054-231900-
EAST SLOPES AND CENTRAL MONTANA

CITY           SKY/WX    TMP DP  RH WIND       PRES   REMARKS
CUT BANK       SUNNY     86  41  20 W15G22    29.98F
GREAT FALLS    SUNNY     87  40  19 S7        30.00F
HELENA         SUNNY     85  47  26 NE6       30.03F
CHOTEAU          N/A     86  43  22 S9        30.02F
$$

MTZ011-013-016-021-045-047-050-051-231900-
NORTH CENTRAL MONTANA

CITY           SKY/WX    TMP DP  RH WIND       PRES   REMARKS
HAVRE          SUNNY     88  44  21 VRB3      29.93F
LEWISTOWN      SUNNY     86  39  19 CALM      30.04F
N BAR RANCH      N/A     86  32  14 S12       30.09F
CHINOOK          N/A     88  46  23 W5        29.93F
$$

MTZ017>020-022>027-061-062-231900-
NORTHEAST MONTANA

CITY           SKY/WX    TMP DP  RH WIND       PRES   REMARKS
GLASGOW        SUNNY     87  45  23 VRB7      29.95F
JORDAN           N/A     93  38  14 SW13      29.96F
SIDNEY         SUNNY     85  51  31 VRB3      30.00F
WOLF POINT     SUNNY     91  43  18 S8        29.96F
MALTA          SUNNY     91  43  18 W6        29.92F
PLENTYWOOD       N/A     82  48  30 S12       30.00F
POPLAR           N/A     88  46  23 SW7       29.97F
SCOBEY           N/A     86  47  25 S7        29.98F
$$

MTZ028>42-056>058-231900-
SOUTHCENTRAL AND SOUTHEAST MONTANA

CITY           SKY/WX    TMP DP  RH WIND       PRES   REMARKS
BAKER          SUNNY     89  40  17 SW8       30.06F
BILLINGS       SUNNY     83  37  19 VRB5      30.04F
LIVINGSTON     SUNNY     87  38  17 NE3       30.08F
MILES CITY     SUNNY     91  39  16 S8        29.99F
BIG TIMBER     SUNNY     84  39  20 VRB5      30.10F
EKALAKA          N/A     87  41  19 E8        30.06F
FORSYTH          N/A     91  37  15 SE3       29.99F
LAUREL           N/A     85  40  20 SE3       30.03F
$$

REGIONAL REPORTS...DAKOTAS

CITY           SKY/WX    TMP DP  RH WIND       PRES   REMARKS
WILLISTON      SUNNY     84  52  33 VRB3      30.01F
MINOT          SUNNY     80  51  36 W6        30.03F
DICKINSON      SUNNY     82  49  31 CALM      30.05F
BEACH            N/A     82  43  24 CALM      30.08F
CROSBY           N/A     81  52  36 S6        30.02F
TIOGA            N/A     79  48  34 CALM      30.05F
WATFORD CITY     N/A     84  50  30 W5        30.01F
BISMARCK       SUNNY     79  56  45 VRB5      30.06F
GRAND FORKS    CLOUDY    71  62  73 NW8       30.02R
FARGO          CLOUDY    70  61  73 NW9       30.02S
BUFFALO SD       N/A     86  46  24 SE8       30.01F
RAPID CITY     SUNNY     85  45  24 E6        30.11F
$$

REGIONAL REPORTS...WYOMING/IDAHO/WASHINGTON

CITY           SKY/WX    TMP DP  RH WIND       PRES   REMARKS
GILLETTE       SUNNY     88  41  19 VRB7      30.11F
SHERIDAN       SUNNY     86  40  19 CALM      30.08F
BUFFALO WY     SUNNY     86  34  15 MISG      30.15F
CODY           SUNNY     85  34  16 VRB5      30.14F
YELLOWSTONE LA   N/A     64  40  41 E3        30.38F
IDAHO FALLS    CLOUDY    76  51  41 N6        30.15S
BOISE          SUNNY     87  44  22 VRB6      30.01F
SPOKANE        MOSUNNY   85  49  28 SW9G18    29.98F
$$

REGIONAL REPORTS...ALBERTA

CITY           SKY/WX    TMP DP  RH WIND       PRES   REMARKS
EDMONTON       MOSUNNY   66  54  63 N8        29.92S
CALGARY        MOSUNNY   81  52  36 VRB5      29.90F
LETHBRIDGE     MOSUNNY   86  48  26 SW9G20    29.91F
MEDICINE HAT   MOSUNNY   86  52  30 S9        29.88F
WATERTON GATE    N/A     81  48  32 SW16G25     N/A
MILK RIVER       N/A     88  46  23 W6          N/A
$$

REGIONAL REPORTS...SASKATCHEWAN

CITY           SKY/WX    TMP DP  RH WIND       PRES   REMARKS
SWIFT CURRENT  SUNNY     84  50  30 W5        29.90F
REGINA         MOSUNNY   84  50  30 S12G18    29.94F
SASKATOON      PTSUNNY   77  59  53 S8        29.89F
CYPRESS HILLS    N/A     82  43  24 SW7         N/A
VAL MARIE        N/A     86  43  22 S12         N/A
ROCKGLEN         N/A     86  43  22 S13G18      N/A
ASSINIBOIA       N/A     72  55  56 N12         N/A
$$




USA.gov is the U.S. government's official web portal to all federal, state and local government web resources and services.